Location: Unspecified
(48.6244°N, 0.0000°E)
Time: 12:25:05
(UTC+00:00)

Envisat - Visible Passes

Search period start: 23 October 2019 00:00
Search period end: 02 November 2019 00:00
Orbit: 764 x 766 km, 98.1° (Epoch: 23 October)

Date Brightness Start Highest point End Pass type
(mag) Time Alt. Az. Time Alt. Az. Time Alt. Az.
23 Oct 3.2 17:21:27 10° SE 17:26:18 48° ENE 17:31:11 10° N visible
23 Oct 5.2 19:01:20 10° SSW 19:05:33 26° W 19:09:48 10° NW visible
24 Oct 6.4 05:28:21 10° ENE 05:30:21 12° E 05:32:19 10° ESE visible
24 Oct 3.9 18:23:35 10° S 18:28:32 52° W 18:33:31 10° NNW visible
25 Oct 2.9 17:46:39 10° SSE 17:51:43 78° ENE 17:56:49 10° NNW visible
25 Oct 5.9 19:28:18 10° SW 19:31:21 16° W 19:34:25 10° NW visible
26 Oct 6.0 05:52:26 10° NE 05:56:12 20° E 05:59:57 10° SE visible
26 Oct 4.8 18:49:41 10° SSW 18:54:11 32° W 18:58:44 10° NNW visible
27 Oct 3.4 18:12:11 10° S 18:17:14 65° WSW 18:22:19 10° NNW visible
28 Oct 3.0 17:35:28 10° SSE 17:40:28 63° ENE 17:45:31 10° N visible
28 Oct 5.6 19:16:18 10° SW 19:19:57 20° W 19:23:37 10° NW visible
29 Oct 6.1 05:41:35 10° NE 05:44:48 17° E 05:47:59 10° SE visible
29 Oct 4.4 18:38:06 10° SSW 18:42:50 39° W 18:47:37 10° NNW visible
30 Oct 3.1 18:00:52 10° SSE 18:05:57 80° WSW 18:11:03 10° NNW visible
30 Oct 6.2 19:44:06 10° WSW 19:45:49 12° W 19:47:30 10° WNW visible
31 Oct 5.5 06:06:17 10° NE 06:10:35 27° E 06:14:52 10° SSE visible
31 Oct 3.2 17:24:21 10° SE 17:29:15 51° ENE 17:34:11 10° N visible
31 Oct 5.3 19:04:29 10° SW 19:08:33 24° W 19:12:40 10° NW visible
01 Nov 6.3 05:30:58 10° ENE 05:33:23 13° E 05:35:47 10° ESE visible
01 Nov 4.0 18:26:37 10° S 18:31:31 48° W 18:36:27 10° NNW visible
